This is the latest recevied weather packets stored in our database for station/object N7CW. If no packets are shown the sender has not sent any weather packets the latest 10 day(s).
| Time | Temp. | Humidity | Pressure | Rain* | Wind** | Luminosity | Snow |
|---|---|---|---|---|---|---|---|
| 1777767858 | 21.11° C | 27% | 1017.4 hPa | 0 mm | - | 108 W/m² | - |
| 1777767555 | 21.67° C | 27% | 1017.2 hPa | 0 mm | - | 262 W/m² | - |
| 1777767251 | 21.11° C | 26% | 1017.4 hPa | 0 mm | - | 256 W/m² | - |
| 1777766949 | 20.56° C | 27% | 1017.4 hPa | 0 mm | - | 143 W/m² | - |
| 1777766646 | 21.11° C | 26% | 1017.2 hPa | 0 mm | - | 115 W/m² | - |
| 1777766343 | 20.56° C | 27% | 1017.4 hPa | 0 mm | - | 118 W/m² | - |
| 1777766040 | 20.56° C | 26% | 1017.2 hPa | 0 mm | - | 122 W/m² | - |
| 1777765737 | 20.56° C | 27% | 1017.3 hPa | 0 mm | - | 131 W/m² | - |
| 1777765433 | 20.56° C | 26% | 1017.3 hPa | 0 mm | - | 138 W/m² | - |
| 1777765130 | 21.11° C | 26% | 1017.1 hPa | 0 mm | - | 176 W/m² | - |
| 1777764826 | 20.56° C | 26% | 1017.3 hPa | 0 mm | - | 144 W/m² | - |
| 1777764523 | 21.11° C | 26% | 1017.2 hPa | 0 mm | - | 164 W/m² | - |
| 1777764219 | 21.11° C | 25% | 1017.2 hPa | 0 mm | - | 183 W/m² | - |
| 1777763916 | 21.11° C | 25% | 1017.1 hPa | 0 mm | - | 135 W/m² | - |
| 1777763614 | 21.67° C | 25% | 1017.2 hPa | 0 mm | - | 144 W/m² | - |
| 1777763312 | 21.11° C | 25% | 1017.2 hPa | 0 mm | - | 160 W/m² | - |
| 1777763009 | 21.67° C | 25% | 1017.2 hPa | 0 mm | - | 173 W/m² | - |
| 1777762706 | 21.67° C | 23% | 1017.4 hPa | 0 mm | - | 153 W/m² | - |
| 1777762403 | 21.67° C | 24% | 1017.2 hPa | 0 mm | - | 163 W/m² | - |
| 1777762099 | 22.78° C | 24% | 1017.2 hPa | 0 mm | - | 570 W/m² | - |
| 1777761790 | 22.78° C | 24% | 1017.2 hPa | 0 mm | - | 603 W/m² | - |
| 1777761488 | 22.22° C | 23% | 1017.3 hPa | 0 mm | - | 608 W/m² | - |
| 1777761186 | 22.78° C | 23% | 1017.5 hPa | 0 mm | - | 632 W/m² | - |
| 1777760883 | 23.33° C | 24% | 1017.7 hPa | 0 mm | - | 663 W/m² | - |
| 1777760581 | 21.67° C | 24% | 1017.7 hPa | 0 mm | - | 697 W/m² | - |
* Rain latest hour (hover to see other rain measurements)
** Current wind speed in m/s (hover to see current wind gust speed)